sat.trackr.live / text

‹ back to catalog

STARLINK-3138

NORAD 49430 · 2021-104Y

PAYLOAD ACTIVE UNKNOWN

§ Identity

Operator
Country
US
Launch date
2021-11-13
Launch site
AFETR
Launch vehicle
Mass (kg)
RCS (m²)

Purposes: comms

External: N2YO · Heavens-Above · Gunter

§ Orbital elements

Epoch: 2026-05-25T00:04:25.987584Z

Period
95.44 min
Inclination
53.2136°
Eccentricity
0.0001160
Mean motion
15.08835704 rev/d
Perigee alt
539.0 km
Apogee alt
540.6 km
Semi-major
6,917.9 km
B*
1.9959e-4
RAAN
246.8142°
Arg perigee
85.3834°
Mean anomaly
274.7290°
Rev number
25,015

§ Raw data

STARLINK-31381 49430U 21104Y   26145.00307856  .00002890  00000+0  19959-3 0  99992 49430  53.2136 246.8142 0001160  85.3834 274.7290 15.08835704250153

JSON: /api/v1/satellites/49430 · /tle

For live sub-satellite position, see the globe view (requires WebGL).

§ Visibility from observer

Set your observer location to see the next 7 days of passes ≥ 10°. The values pass through the URL so the page stays shareable.

No JS? Fill the form by hand. The geolocation button needs JavaScript.